Time,TemperatureF,DewpointF,PressureIn,WindDirection,WindDirectionDegrees,WindSpeedMPH,WindSpeedGustMPH,Humidity,HourlyPrecipIn,Conditions,Clouds,dailyrainin,SoftwareType,DateUTC
2013-06-18 00:00:00,72.9,19.9,29.93,WSW,248,0.0,0.0,13,0.00,,---,0.00,VWS V12.07,2013-06-18 07:00:00,
2013-06-18 00:01:00,72.2,19.4,29.93,WSW,248,0.0,0.0,13,0.00,,---,0.00,VWS V12.07,2013-06-18 07:01:00,
2013-06-18 00:06:00,71.9,19.1,29.93,WSW,248,0.0,0.0,13,0.00,,---,0.00,VWS V12.07,2013-06-18 07:06:00,
2013-06-18 00:11:00,71.7,18.5,29.93,WSW,248,0.0,0.0,13,0.00,,---,0.00,VWS V12.07,2013-06-18 07:11:00,
2013-06-18 00:16:00,71.7,18.5,29.93,WSW,248,0.0,0.0,13,0.00,,---,0.00,VWS V12.07,2013-06-18 07:16:00,
2013-06-18 00:21:00,71.8,17.8,29.92,WSW,248,0.0,0.0,13,0.00,,---,0.00,VWS V12.07,2013-06-18 07:21:00,
2013-06-18 00:26:00,72.0,17.6,29.92,WSW,248,0.0,0.0,12,0.00,,---,0.00,VWS V12.07,2013-06-18 07:26:00,
2013-06-18 00:30:00,72.3,17.8,29.93,WSW,248,0.0,0.0,12,0.00,,---,0.00,VWS V12.07,2013-06-18 07:30:00,
2013-06-18 00:31:00,72.2,17.8,29.93,WSW,248,0.0,0.0,12,0.00,,---,0.00,VWS V12.07,2013-06-18 07:31:00,
2013-06-18 00:36:00,72.1,17.5,29.93,WSW,248,0.0,0.0,12,0.00,,---,0.00,VWS V12.07,2013-06-18 07:36:00,
2013-06-18 00:41:00,71.8,18.2,29.93,WSW,248,0.0,0.0,13,0.00,,---,0.00,VWS V12.07,2013-06-18 07:41:00,
2013-06-18 00:46:00,71.3,19.0,29.92,WSW,248,0.0,0.0,14,0.00,,---,0.00,VWS V12.07,2013-06-18 07:46:00,
2013-06-18 00:51:00,70.8,18.6,29.92,WSW,248,0.0,0.0,14,0.00,,---,0.00,VWS V12.07,2013-06-18 07:51:00,
2013-06-18 00:56:00,70.4,18.8,29.92,WSW,248,0.0,0.0,14,0.00,,---,0.00,VWS V12.07,2013-06-18 07:56:00,
2013-06-18 01:00:00,70.5,18.9,29.92,WSW,248,0.0,0.0,14,0.00,,---,0.00,VWS V12.07,2013-06-18 08:00:00,
2013-06-18 01:01:00,70.1,18.0,29.92,WSW,248,0.0,0.0,14,0.00,,---,0.00,VWS V12.07,2013-06-18 08:01:00,
2013-06-18 01:06:00,70.2,18.3,29.92,WSW,248,0.0,0.0,14,0.00,,---,0.00,VWS V12.07,2013-06-18 08:06:00,
2013-06-18 01:11:00,70.2,18.6,29.92,WSW,248,0.0,0.0,14,0.00,,---,0.00,VWS V12.07,2013-06-18 08:11:00,
2013-06-18 01:16:00,69.7,19.2,29.92,WSW,248,0.0,0.0,14,0.00,,---,0.00,VWS V12.07,2013-06-18 08:16:00,
2013-06-18 01:21:00,69.3,18.9,29.92,WSW,248,0.0,0.0,14,0.00,,---,0.00,VWS V12.07,2013-06-18 08:21:00,
2013-06-18 01:26:00,69.1,18.8,29.92,WSW,248,0.0,0.0,14,0.00,,---,0.00,VWS V12.07,2013-06-18 08:26:00,
2013-06-18 01:30:00,69.0,18.5,29.92,WSW,248,0.0,0.0,14,0.00,,---,0.00,VWS V12.07,2013-06-18 08:30:00,
2013-06-18 01:31:00,68.8,18.5,29.91,WSW,248,0.0,0.0,14,0.00,,---,0.00,VWS V12.07,2013-06-18 08:31:00,
2013-06-18 01:36:00,68.8,18.5,29.91,WSW,248,0.0,0.0,14,0.00,,---,0.00,VWS V12.07,2013-06-18 08:36:00,
2013-06-18 01:41:00,68.6,18.5,29.91,WSW,248,0.0,0.0,15,0.00,,---,0.00,VWS V12.07,2013-06-18 08:41:00,
2013-06-18 01:46:00,68.6,19.0,29.91,WSW,248,0.0,0.0,15,0.00,,---,0.00,VWS V12.07,2013-06-18 08:46:00,
2013-06-18 01:51:00,68.4,19.0,29.91,WSW,248,0.0,0.0,15,0.00,,---,0.00,VWS V12.07,2013-06-18 08:51:00,
2013-06-18 01:56:00,68.2,18.8,29.91,WSW,248,0.0,0.0,15,0.00,,---,0.00,VWS V12.07,2013-06-18 08:56:00,
2013-06-18 02:00:00,68.1,18.7,29.91,WSW,248,0.0,0.0,15,0.00,,---,0.00,VWS V12.07,2013-06-18 09:00:00,
2013-06-18 02:01:00,68.0,19.0,29.91,WSW,248,0.0,0.0,15,0.00,,---,0.00,VWS V12.07,2013-06-18 09:01:00,
2013-06-18 02:06:00,67.5,19.2,29.91,WSW,248,0.0,0.0,16,0.00,,---,0.00,VWS V12.07,2013-06-18 09:06:00,
2013-06-18 02:11:00,67.2,18.8,29.91,WSW,248,0.0,0.0,16,0.00,,---,0.00,VWS V12.07,2013-06-18 09:11:00,
2013-06-18 02:16:00,66.8,18.9,29.91,WSW,248,0.0,0.0,16,0.00,,---,0.00,VWS V12.07,2013-06-18 09:16:00,
2013-06-18 02:21:00,66.3,19.5,29.91,WSW,248,0.0,0.0,16,0.00,,---,0.00,VWS V12.07,2013-06-18 09:21:00,
2013-06-18 02:26:00,66.0,20.1,29.91,WSW,248,0.0,0.0,17,0.00,,---,0.00,VWS V12.07,2013-06-18 09:26:00,
2013-06-18 02:30:00,65.9,20.0,29.91,WSW,248,0.0,0.0,17,0.00,,---,0.00,VWS V12.07,2013-06-18 09:30:00,
2013-06-18 02:31:00,65.8,19.5,29.91,WSW,248,0.0,0.0,17,0.00,,---,0.00,VWS V12.07,2013-06-18 09:31:00,
2013-06-18 02:36:00,66.0,19.3,29.91,WSW,248,0.0,0.0,16,0.00,,---,0.00,VWS V12.07,2013-06-18 09:36:00,
2013-06-18 02:41:00,66.1,19.1,29.91,WSW,248,0.0,0.0,16,0.00,,---,0.00,VWS V12.07,2013-06-18 09:41:00,
2013-06-18 02:46:00,66.2,19.1,29.91,WSW,248,0.0,0.0,16,0.00,,---,0.00,VWS V12.07,2013-06-18 09:46:00,
2013-06-18 02:51:00,66.0,19.4,29.91,WSW,248,0.0,0.0,17,0.00,,---,0.00,VWS V12.07,2013-06-18 09:51:00,
2013-06-18 02:56:00,66.0,19.3,29.91,WSW,248,0.0,0.0,16,0.00,,---,0.00,VWS V12.07,2013-06-18 09:56:00,
2013-06-18 03:00:00,66.1,19.2,29.91,WSW,248,0.0,0.0,16,0.00,,---,0.00,VWS V12.07,2013-06-18 10:00:00,
2013-06-18 03:01:00,65.8,19.1,29.91,WSW,248,0.0,0.0,16,0.00,,---,0.00,VWS V12.07,2013-06-18 10:01:00,
2013-06-18 03:06:00,65.7,19.3,29.91,WSW,248,0.0,0.0,17,0.00,,---,0.00,VWS V12.07,2013-06-18 10:06:00,
2013-06-18 03:11:00,65.6,19.1,29.91,WSW,248,0.0,0.0,17,0.00,,---,0.00,VWS V12.07,2013-06-18 10:11:00,
2013-06-18 03:16:00,65.5,19.3,29.92,WSW,248,0.0,0.0,17,0.00,,---,0.00,VWS V12.07,2013-06-18 10:16:00,
2013-06-18 03:21:00,65.1,19.4,29.92,WSW,248,0.0,0.0,17,0.00,,---,0.00,VWS V12.07,2013-06-18 10:21:00,
2013-06-18 03:26:00,64.7,19.2,29.91,WSW,248,0.0,0.0,17,0.00,,---,0.00,VWS V12.07,2013-06-18 10:26:00,
2013-06-18 03:30:00,64.7,19.2,29.92,WSW,248,0.0,0.0,17,0.00,,---,0.00,VWS V12.07,2013-06-18 10:30:00,
2013-06-18 03:31:00,64.5,19.0,29.92,WSW,248,0.0,0.0,17,0.00,,---,0.00,VWS V12.07,2013-06-18 10:31:00,
2013-06-18 03:36:00,64.5,19.3,29.92,WSW,248,0.0,0.0,17,0.00,,---,0.00,VWS V12.07,2013-06-18 10:36:00,
2013-06-18 03:41:00,64.2,19.5,29.92,WSW,248,0.0,0.0,18,0.00,,---,0.00,VWS V12.07,2013-06-18 10:41:00,
2013-06-18 03:46:00,64.1,19.4,29.92,WSW,248,0.0,0.0,18,0.00,,---,0.00,VWS V12.07,2013-06-18 10:46:00,
2013-06-18 03:51:00,63.9,19.2,29.92,WSW,248,0.0,0.0,18,0.00,,---,0.00,VWS V12.07,2013-06-18 10:51:00,
2013-06-18 03:56:00,64.1,19.0,29.92,WSW,248,0.0,0.0,17,0.00,,---,0.00,VWS V12.07,2013-06-18 10:56:00,
2013-06-18 04:00:00,64.2,18.9,29.92,WSW,248,0.0,0.0,17,0.00,,---,0.00,VWS V12.07,2013-06-18 11:00:00,
2013-06-18 04:01:00,64.4,18.9,29.92,WSW,248,0.0,0.0,17,0.00,,---,0.00,VWS V12.07,2013-06-18 11:01:00,
2013-06-18 04:06:00,64.4,18.5,29.92,WSW,248,0.0,0.0,17,0.00,,---,0.00,VWS V12.07,2013-06-18 11:06:00,
2013-06-18 04:11:00,64.7,18.6,29.92,WSW,248,0.0,0.0,17,0.00,,---,0.00,VWS V12.07,2013-06-18 11:11:00,
2013-06-18 04:16:00,64.9,18.7,29.92,WSW,248,0.0,0.0,17,0.00,,---,0.00,VWS V12.07,2013-06-18 11:16:00,
2013-06-18 04:21:00,64.9,18.7,29.93,WSW,248,0.0,0.0,17,0.00,,---,0.00,VWS V12.07,2013-06-18 11:21:00,
2013-06-18 04:26:00,64.7,18.6,29.93,WSW,248,0.0,0.0,17,0.00,,---,0.00,VWS V12.07,2013-06-18 11:26:00,
2013-06-18 04:30:00,64.6,18.5,29.93,WSW,248,0.0,0.0,17,0.00,,---,0.00,VWS V12.07,2013-06-18 11:30:00,
2013-06-18 04:31:00,64.6,18.7,29.93,WSW,248,0.0,0.0,17,0.00,,---,0.00,VWS V12.07,2013-06-18 11:31:00,
2013-06-18 04:36:00,64.4,18.7,29.93,WSW,248,0.0,0.0,17,0.00,,---,0.00,VWS V12.07,2013-06-18 11:36:00,
2013-06-18 04:41:00,64.3,18.7,29.93,WSW,248,0.0,0.0,17,0.00,,---,0.00,VWS V12.07,2013-06-18 11:41:00,
2013-06-18 04:46:00,64.1,18.6,29.93,WSW,248,0.0,0.0,17,0.00,,---,0.00,VWS V12.07,2013-06-18 11:46:00,
2013-06-18 04:51:00,63.9,18.7,29.93,WSW,248,0.0,0.0,17,0.00,,---,0.00,VWS V12.07,2013-06-18 11:51:00,
2013-06-18 04:56:00,63.7,18.9,29.93,WSW,248,0.0,0.0,18,0.00,,---,0.00,VWS V12.07,2013-06-18 11:56:00,
2013-06-18 05:00:00,63.7,18.9,29.93,WSW,248,0.0,0.0,18,0.00,,---,0.00,VWS V12.07,2013-06-18 12:00:00,
2013-06-18 05:01:00,63.4,19.7,29.93,WSW,248,0.0,0.0,18,0.00,,---,0.00,VWS V12.07,2013-06-18 12:01:00,
2013-06-18 05:06:00,63.0,19.8,29.93,WSW,248,0.0,0.0,19,0.00,,---,0.00,VWS V12.07,2013-06-18 12:06:00,
2013-06-18 05:11:00,62.5,20.3,29.93,WSW,248,0.0,0.0,20,0.00,,---,0.00,VWS V12.07,2013-06-18 12:11:00,
2013-06-18 05:16:00,62.1,20.9,29.94,WSW,248,0.0,0.0,20,0.00,,---,0.00,VWS V12.07,2013-06-18 12:16:00,
2013-06-18 05:21:00,61.6,20.5,29.94,WSW,248,0.0,0.0,20,0.00,,---,0.00,VWS V12.07,2013-06-18 12:21:00,
2013-06-18 05:26:00,61.4,20.8,29.94,WSW,248,0.0,0.0,21,0.00,,---,0.00,VWS V12.07,2013-06-18 12:26:00,
2013-06-18 05:30:00,61.4,21.0,29.94,WSW,248,0.0,0.0,21,0.00,,---,0.00,VWS V12.07,2013-06-18 12:30:00,
2013-06-18 05:31:00,61.2,21.1,29.94,WSW,248,0.0,0.0,21,0.00,,---,0.00,VWS V12.07,2013-06-18 12:31:00,
2013-06-18 05:36:00,61.1,20.6,29.94,WSW,248,0.0,0.0,21,0.00,,---,0.00,VWS V12.07,2013-06-18 12:36:00,
2013-06-18 05:41:00,61.5,20.8,29.95,WSW,248,0.0,0.0,21,0.00,,---,0.00,VWS V12.07,2013-06-18 12:41:00,
2013-06-18 05:47:00,62.0,20.6,29.95,WSW,248,0.0,0.0,20,0.00,,---,0.00,VWS V12.07,2013-06-18 12:47:00,
2013-06-18 05:52:00,62.2,20.7,29.95,WSW,248,0.0,0.0,20,0.00,,---,0.00,VWS V12.07,2013-06-18 12:52:00,
2013-06-18 05:57:00,62.5,21.6,29.96,WSW,248,0.0,0.0,21,0.00,,---,0.00,VWS V12.07,2013-06-18 12:57:00,
2013-06-18 06:00:00,62.4,21.5,29.96,WSW,248,0.0,0.0,21,0.00,,---,0.00,VWS V12.07,2013-06-18 13:00:00,
2013-06-18 06:02:00,62.8,20.9,29.96,WSW,248,0.0,0.0,20,0.00,,---,0.00,VWS V12.07,2013-06-18 13:02:00,
2013-06-18 06:07:00,63.4,20.7,29.96,WSW,248,0.0,0.0,19,0.00,,---,0.00,VWS V12.07,2013-06-18 13:07:00,
2013-06-18 06:12:00,63.7,20.6,29.96,WSW,248,0.0,0.0,19,0.00,,---,0.00,VWS V12.07,2013-06-18 13:12:00,
2013-06-18 06:17:00,64.3,20.8,29.96,WSW,248,0.0,0.0,19,0.00,,---,0.00,VWS V12.07,2013-06-18 13:17:00,
2013-06-18 06:22:00,64.9,21.3,29.96,WSW,248,0.0,0.0,19,0.00,,---,0.00,VWS V12.07,2013-06-18 13:22:00,
2013-06-18 06:27:00,65.3,21.5,29.95,WSW,248,0.0,0.0,19,0.00,,---,0.00,VWS V12.07,2013-06-18 13:27:00,
2013-06-18 06:30:00,65.4,21.6,29.96,WSW,248,0.0,0.0,19,0.00,,---,0.00,VWS V12.07,2013-06-18 13:30:00,
2013-06-18 06:32:00,65.8,22.2,29.95,WSW,248,0.0,0.0,19,0.00,,---,0.00,VWS V12.07,2013-06-18 13:32:00,
2013-06-18 06:37:00,66.1,21.8,29.96,WSW,248,0.0,0.0,18,0.00,,---,0.00,VWS V12.07,2013-06-18 13:37:00,
2013-06-18 06:42:00,66.8,21.8,29.96,NNW,338,0.0,4.6,18,0.00,,---,0.00,VWS V12.07,2013-06-18 13:42:00,
2013-06-18 06:47:00,67.3,21.6,29.96,NNE,22,0.0,5.1,17,0.00,,---,0.00,VWS V12.07,2013-06-18 13:47:00,
2013-06-18 06:52:00,67.8,21.7,29.96,North,352,0.0,5.1,17,0.00,,---,0.00,VWS V12.07,2013-06-18 13:52:00,
2013-06-18 06:57:00,68.1,21.8,29.96,North,352,0.0,5.1,17,0.00,,---,0.00,VWS V12.07,2013-06-18 13:57:00,
2013-06-18 07:00:00,68.3,21.7,29.96,North,352,0.0,5.1,17,0.00,,---,0.00,VWS V12.07,2013-06-18 14:00:00,
2013-06-18 07:02:00,68.4,21.5,29.96,North,352,0.0,5.1,17,0.00,,---,0.00,VWS V12.07,2013-06-18 14:02:00,
2013-06-18 07:07:00,68.9,21.3,29.96,North,359,0.0,6.0,16,0.00,,---,0.00,VWS V12.07,2013-06-18 14:07:00,
2013-06-18 07:12:00,69.1,21.4,29.97,NNW,340,0.0,6.0,16,0.00,,---,0.00,VWS V12.07,2013-06-18 14:12:00,
2013-06-18 07:17:00,69.7,22.1,29.97,NNW,340,0.0,6.0,16,0.00,,---,0.00,VWS V12.07,2013-06-18 14:17:00,
2013-06-18 07:22:00,70.2,21.6,29.97,NW,326,0.0,6.0,16,0.00,,---,0.00,VWS V12.07,2013-06-18 14:22:00,
2013-06-18 07:27:00,70.7,22.0,29.97,NW,326,0.0,6.0,16,0.00,,---,0.00,VWS V12.07,2013-06-18 14:27:00,
2013-06-18 07:30:00,70.8,22.0,29.97,NW,326,0.0,6.0,16,0.00,,---,0.00,VWS V12.07,2013-06-18 14:30:00,
2013-06-18 07:32:00,71.4,21.5,29.97,NW,326,0.0,6.0,15,0.00,,---,0.00,VWS V12.07,2013-06-18 14:32:00,
2013-06-18 07:37:00,71.8,22.2,29.97,NW,326,0.0,6.0,15,0.00,,---,0.00,VWS V12.07,2013-06-18 14:37:00,
2013-06-18 07:42:00,72.4,22.0,29.97,NW,326,0.0,6.0,15,0.00,,---,0.00,VWS V12.07,2013-06-18 14:42:00,
2013-06-18 07:47:00,73.4,22.0,29.97,NW,326,0.0,6.0,14,0.00,,---,0.00,VWS V12.07,2013-06-18 14:47:00,
2013-06-18 07:52:00,74.1,21.7,29.96,NW,326,0.0,0.0,14,0.00,,---,0.00,VWS V12.07,2013-06-18 14:52:00,
2013-06-18 07:57:00,74.7,22.0,29.96,NW,326,0.0,0.0,14,0.00,,---,0.00,VWS V12.07,2013-06-18 14:57:00,
2013-06-18 08:00:00,74.6,21.8,29.96,NW,326,0.0,0.0,14,0.00,,---,0.00,VWS V12.07,2013-06-18 15:00:00,
2013-06-18 08:02:00,75.2,21.4,29.96,NW,326,0.0,0.0,13,0.00,,---,0.00,VWS V12.07,2013-06-18 15:02:00,
2013-06-18 08:08:00,76.0,22.7,29.96,NW,326,0.0,0.0,14,0.00,,---,0.00,VWS V12.07,2013-06-18 15:08:00,
2013-06-18 08:13:00,76.2,21.8,29.96,NW,326,0.0,0.0,13,0.00,,---,0.00,VWS V12.07,2013-06-18 15:13:00,
2013-06-18 08:18:00,76.7,22.6,29.96,NW,326,0.0,0.0,13,0.00,,---,0.00,VWS V12.07,2013-06-18 15:18:00,
2013-06-18 08:23:00,77.5,23.2,29.96,NW,326,0.0,0.0,13,0.00,,---,0.00,VWS V12.07,2013-06-18 15:23:00,
2013-06-18 08:28:00,78.2,23.0,29.96,NW,326,0.0,0.0,13,0.00,,---,0.00,VWS V12.07,2013-06-18 15:28:00,
2013-06-18 08:30:00,78.1,22.9,29.96,NW,326,0.0,0.0,13,0.00,,---,0.00,VWS V12.07,2013-06-18 15:30:00,
2013-06-18 08:33:00,78.9,23.9,29.96,NW,326,0.0,0.0,13,0.00,,---,0.00,VWS V12.07,2013-06-18 15:33:00,
2013-06-18 08:38:00,79.2,25.4,29.96,NW,326,0.0,0.0,14,0.00,,---,0.00,VWS V12.07,2013-06-18 15:38:00,
2013-06-18 08:43:00,79.9,26.1,29.96,NW,326,0.0,0.0,14,0.00,,---,0.00,VWS V12.07,2013-06-18 15:43:00,
2013-06-18 08:48:00,80.4,26.5,29.96,NW,326,0.0,0.0,14,0.00,,---,0.00,VWS V12.07,2013-06-18 15:48:00,
2013-06-18 08:53:00,80.9,26.4,29.96,NW,326,0.0,0.0,14,0.00,,---,0.00,VWS V12.07,2013-06-18 15:53:00,
2013-06-18 08:58:00,81.5,25.2,29.96,NW,326,0.0,0.0,13,0.00,,---,0.00,VWS V12.07,2013-06-18 15:58:00,
2013-06-18 09:00:00,81.4,25.7,29.96,NW,326,0.0,0.0,13,0.00,,---,0.00,VWS V12.07,2013-06-18 16:00:00,
2013-06-18 09:03:00,81.8,24.3,29.96,NE,41,0.0,4.2,12,0.00,,---,0.00,VWS V12.07,2013-06-18 16:03:00,
2013-06-18 09:08:00,81.7,23.8,29.95,NNE,28,0.0,4.4,12,0.00,,---,0.00,VWS V12.07,2013-06-18 16:08:00,
2013-06-18 09:13:00,81.9,23.8,29.95,NNE,28,0.0,4.4,12,0.00,,---,0.00,VWS V12.07,2013-06-18 16:13:00,
2013-06-18 09:18:00,82.3,23.9,29.95,ENE,60,4.5,4.5,12,0.00,,---,0.00,VWS V12.07,2013-06-18 16:18:00,
2013-06-18 09:23:00,83.1,25.3,29.95,ENE,63,0.0,4.5,12,0.00,,---,0.00,VWS V12.07,2013-06-18 16:23:00,
2013-06-18 09:28:00,83.9,24.5,29.95,ENE,63,0.0,4.5,11,0.00,,---,0.00,VWS V12.07,2013-06-18 16:28:00,
2013-06-18 09:30:00,83.7,24.7,29.95,ENE,63,0.0,4.5,12,0.00,,---,0.00,VWS V12.07,2013-06-18 16:30:00,
2013-06-18 09:33:00,84.4,24.0,29.95,ENE,63,0.0,4.5,11,0.00,,---,0.00,VWS V12.07,2013-06-18 16:33:00,
2013-06-18 09:38:00,84.5,23.2,29.95,ENE,63,0.0,4.5,10,0.00,,---,0.00,VWS V12.07,2013-06-18 16:38:00,
2013-06-18 09:43:00,84.7,22.6,29.94,ENE,63,0.0,4.5,10,0.00,,---,0.00,VWS V12.07,2013-06-18 16:43:00,
2013-06-18 09:48:00,85.0,21.9,29.94,ENE,63,0.0,4.5,10,0.00,,---,0.00,VWS V12.07,2013-06-18 16:48:00,
2013-06-18 09:53:00,85.4,22.2,29.94,ENE,63,0.0,0.0,10,0.00,,---,0.00,VWS V12.07,2013-06-18 16:53:00,
2013-06-18 09:58:00,85.8,21.8,29.94,ENE,63,0.0,0.0,10,0.00,,---,0.00,VWS V12.07,2013-06-18 16:58:00,
2013-06-18 10:00:00,85.7,22.0,29.94,ENE,63,0.0,0.0,10,0.00,,---,0.00,VWS V12.07,2013-06-18 17:00:00,
2013-06-18 10:03:00,86.5,21.6,29.94,ENE,63,0.0,0.0,9,0.00,,---,0.00,VWS V12.07,2013-06-18 17:03:00,
2013-06-18 10:08:00,87.0,21.7,29.94,ENE,63,0.0,2.9,9,0.00,,---,0.00,VWS V12.07,2013-06-18 17:08:00,
2013-06-18 10:16:00,87.5,22.0,29.94,SSE,152,0.0,6.5,9,0.00,,---,0.00,VWS V12.07,2013-06-18 17:16:00,
2013-06-18 10:21:00,87.9,21.3,29.94,South,172,5.0,6.5,9,0.00,,---,0.00,VWS V12.07,2013-06-18 17:21:00,
2013-06-18 10:26:00,88.3,21.0,29.93,ESE,105,0.0,8.0,8,0.00,,---,0.00,VWS V12.07,2013-06-18 17:26:00,
2013-06-18 10:30:00,88.4,21.4,29.93,East,96,0.0,8.0,9,0.00,,---,0.00,VWS V12.07,2013-06-18 17:30:00,
2013-06-18 10:34:00,88.7,21.3,29.93,SSW,207,0.0,8.0,8,0.00,,---,0.00,VWS V12.07,2013-06-18 17:34:00,
2013-06-18 10:39:00,89.5,22.2,29.93,SSW,207,0.0,8.0,9,0.00,,---,0.00,VWS V12.07,2013-06-18 17:39:00,
2013-06-18 10:44:00,90.0,22.0,29.93,ESE,104,0.0,8.0,8,0.00,,---,0.00,VWS V12.07,2013-06-18 17:44:00,
2013-06-18 10:49:00,90.6,20.7,29.93,ESE,103,0.0,8.0,8,0.00,,---,0.00,VWS V12.07,2013-06-18 17:49:00,
2013-06-18 10:54:00,91.2,21.8,29.92,ESE,114,0.0,8.0,8,0.00,,---,0.00,VWS V12.07,2013-06-18 17:54:00,
2013-06-18 10:59:00,92.1,21.2,29.91,East,80,0.0,8.9,8,0.00,,---,0.00,VWS V12.07,2013-06-18 17:59:00,
2013-06-18 11:00:00,91.7,20.0,29.92,ESE,114,0.0,7.3,7,0.00,,---,0.00,VWS V12.07,2013-06-18 18:00:00,
2013-06-18 11:04:00,92.8,19.5,29.92,South,190,0.0,8.9,7,0.00,,---,0.00,VWS V12.07,2013-06-18 18:04:00,
2013-06-18 11:09:00,92.9,19.5,29.92,SSE,149,5.0,8.9,7,0.00,,---,0.00,VWS V12.07,2013-06-18 18:09:00,
2013-06-18 11:14:00,93.7,19.4,29.92,SSW,201,4.6,17.8,7,0.00,,---,0.00,VWS V12.07,2013-06-18 18:14:00,
2013-06-18 11:19:00,94.2,19.1,29.92,SSW,205,5.2,17.8,6,0.00,,---,0.00,VWS V12.07,2013-06-18 18:19:00,
2013-06-18 11:24:00,94.7,19.4,29.92,SW,221,8.7,17.8,6,0.00,,---,0.00,VWS V12.07,2013-06-18 18:24:00,
2013-06-18 11:29:00,95.0,19.6,29.92,SSE,167,0.0,22.8,6,0.00,,---,0.00,VWS V12.07,2013-06-18 18:29:00,
2013-06-18 11:30:00,94.9,19.6,29.92,SW,235,5.6,22.8,6,0.00,,---,0.00,VWS V12.07,2013-06-18 18:30:00,
2013-06-18 11:34:00,95.1,19.7,29.91,South,186,9.6,22.8,6,0.00,,---,0.00,VWS V12.07,2013-06-18 18:34:00,
2013-06-18 11:39:00,95.9,19.9,29.91,South,181,7.7,22.8,6,0.00,,---,0.00,VWS V12.07,2013-06-18 18:39:00,
2013-06-18 11:44:00,96.4,19.9,29.92,SSW,197,7.7,22.8,6,0.00,,---,0.00,VWS V12.07,2013-06-18 18:44:00,
2013-06-18 11:49:00,96.2,20.1,29.91,South,187,9.7,22.8,6,0.00,,---,0.00,VWS V12.07,2013-06-18 18:49:00,
2013-06-18 11:54:00,95.4,19.6,29.91,SSW,211,5.3,22.8,6,0.00,,---,0.00,VWS V12.07,2013-06-18 18:54:00,
2013-06-18 11:59:00,95.0,19.6,29.91,South,183,4.5,22.8,6,0.00,,---,0.00,VWS V12.07,2013-06-18 18:59:00,
2013-06-18 12:00:00,95.1,19.7,29.91,South,184,10.9,20.6,6,0.00,,---,0.00,VWS V12.07,2013-06-18 19:00:00,
2013-06-18 12:04:00,95.9,19.9,29.91,SSW,195,3.4,22.8,6,0.00,,---,0.00,VWS V12.07,2013-06-18 19:04:00,
2013-06-18 12:09:00,95.8,19.9,29.91,SSE,166,9.9,22.8,6,0.00,,---,0.00,VWS V12.07,2013-06-18 19:09:00,
2013-06-18 12:14:00,96.0,19.6,29.91,South,187,9.9,22.8,6,0.00,,---,0.00,VWS V12.07,2013-06-18 19:14:00,
2013-06-18 12:19:00,96.0,19.6,29.92,South,190,10.3,22.8,6,0.00,,---,0.00,VWS V12.07,2013-06-18 19:19:00,
2013-06-18 12:24:00,95.4,19.6,29.91,SW,224,7.0,22.8,6,0.00,,---,0.00,VWS V12.07,2013-06-18 19:24:00,
2013-06-18 12:29:00,95.8,19.9,29.91,SSE,166,6.8,22.8,6,0.00,,---,0.00,VWS V12.07,2013-06-18 19:29:00,
2013-06-18 12:30:00,95.8,19.9,29.91,South,186,11.8,19.6,6,0.00,,---,0.00,VWS V12.07,2013-06-18 19:30:00,
2013-06-18 12:34:00,95.9,19.9,29.91,SSW,201,6.6,22.8,6,0.00,,---,0.00,VWS V12.07,2013-06-18 19:34:00,
2013-06-18 12:39:00,96.1,19.7,29.91,SSE,162,14.9,22.8,6,0.00,,---,0.00,VWS V12.07,2013-06-18 19:39:00,
2013-06-18 12:44:00,96.3,19.9,29.91,SW,214,7.4,22.8,6,0.00,,---,0.00,VWS V12.07,2013-06-18 19:44:00,
2013-06-18 12:49:00,96.5,20.0,29.91,SSE,167,5.2,22.8,6,0.00,,---,0.00,VWS V12.07,2013-06-18 19:49:00,
2013-06-18 12:54:00,96.9,19.9,29.91,South,187,18.5,24.7,6,0.00,,---,0.00,VWS V12.07,2013-06-18 19:54:00,
2013-06-18 12:59:00,96.2,19.4,29.91,South,174,9.4,24.7,6,0.00,,---,0.00,VWS V12.07,2013-06-18 19:59:00,
2013-06-18 13:00:00,96.4,19.9,29.91,SW,219,5.6,24.7,6,0.00,,---,0.00,VWS V12.07,2013-06-18 20:00:00,
2013-06-18 13:04:00,96.3,19.9,29.90,SSW,195,11.9,24.7,6,0.00,,---,0.00,VWS V12.07,2013-06-18 20:04:00,
2013-06-18 13:09:00,96.7,19.8,29.90,SSW,197,8.6,24.7,6,0.00,,---,0.00,VWS V12.07,2013-06-18 20:09:00,
2013-06-18 13:14:00,96.8,19.8,29.90,SSW,204,10.1,24.7,6,0.00,,---,0.00,VWS V12.07,2013-06-18 20:14:00,
2013-06-18 13:19:00,96.8,19.8,29.90,SW,222,6.3,24.7,6,0.00,,---,0.00,VWS V12.07,2013-06-18 20:19:00,
2013-06-18 13:24:00,96.8,19.8,29.90,SW,222,5.9,24.7,6,0.00,,---,0.00,VWS V12.07,2013-06-18 20:24:00,
2013-06-18 13:29:00,97.2,19.7,29.90,SSW,200,10.4,24.7,6,0.00,,---,0.00,VWS V12.07,2013-06-18 20:29:00,
2013-06-18 13:30:00,97.0,20.0,29.90,SSW,194,7.1,21.4,6,0.00,,---,0.00,VWS V12.07,2013-06-18 20:30:00,
2013-06-18 13:34:00,96.8,19.8,29.90,SSE,150,2.4,24.7,6,0.00,,---,0.00,VWS V12.07,2013-06-18 20:34:00,
2013-06-18 13:39:00,96.8,19.8,29.90,South,183,10.4,24.7,6,0.00,,---,0.00,VWS V12.07,2013-06-18 20:39:00,
2013-06-18 13:44:00,96.7,19.4,29.90,SSE,163,18.0,24.7,6,0.00,,---,0.00,VWS V12.07,2013-06-18 20:44:00,
2013-06-18 13:49:00,97.2,19.7,29.90,SSW,205,4.3,24.7,6,0.00,,---,0.00,VWS V12.07,2013-06-18 20:49:00,
2013-06-18 13:54:00,96.8,19.8,29.89,South,169,5.2,24.7,6,0.00,,---,0.00,VWS V12.07,2013-06-18 20:54:00,
2013-06-18 13:59:00,96.4,19.5,29.89,South,180,8.7,24.7,6,0.00,,---,0.00,VWS V12.07,2013-06-18 20:59:00,
2013-06-18 14:00:00,96.7,19.8,29.89,SSW,210,4.9,20.7,6,0.00,,---,0.00,VWS V12.07,2013-06-18 21:00:00,
2013-06-18 14:04:00,96.9,19.9,29.89,SW,231,8.1,24.7,6,0.00,,---,0.00,VWS V12.07,2013-06-18 21:04:00,
2013-06-18 14:09:00,96.7,19.8,29.89,SSW,195,8.4,24.7,6,0.00,,---,0.00,VWS V12.07,2013-06-18 21:09:00,
2013-06-18 14:14:00,96.3,19.5,29.89,South,191,7.3,24.7,6,0.00,,---,0.00,VWS V12.07,2013-06-18 21:14:00,
2013-06-18 14:19:00,96.4,19.2,29.89,South,173,13.7,24.7,6,0.00,,---,0.00,VWS V12.07,2013-06-18 21:19:00,
2013-06-18 14:24:00,96.9,19.5,29.89,SW,218,0.0,24.7,6,0.00,,---,0.00,VWS V12.07,2013-06-18 21:24:00,
2013-06-18 14:29:00,97.3,19.8,29.89,South,188,14.0,24.7,6,0.00,,---,0.00,VWS V12.07,2013-06-18 21:29:00,
2013-06-18 14:30:00,97.3,19.8,29.89,South,187,9.8,21.5,6,0.00,,---,0.00,VWS V12.07,2013-06-18 21:30:00,
2013-06-18 14:34:00,97.3,19.8,29.89,SSW,197,11.8,24.7,6,0.00,,---,0.00,VWS V12.07,2013-06-18 21:34:00,
2013-06-18 14:39:00,97.3,19.8,29.89,SSE,156,3.4,24.7,6,0.00,,---,0.00,VWS V12.07,2013-06-18 21:39:00,
2013-06-18 14:44:00,97.3,19.4,29.89,SSE,163,7.7,24.7,6,0.00,,---,0.00,VWS V12.07,2013-06-18 21:44:00,
2013-06-18 14:49:00,97.0,19.6,29.89,South,184,14.5,24.7,6,0.00,,---,0.00,VWS V12.07,2013-06-18 21:49:00,
2013-06-18 14:54:00,97.2,19.7,29.88,SW,229,6.5,24.7,6,0.00,,---,0.00,VWS V12.07,2013-06-18 21:54:00,
2013-06-18 14:59:00,97.2,19.7,29.88,South,183,13.1,24.7,6,0.00,,---,0.00,VWS V12.07,2013-06-18 21:59:00,
2013-06-18 15:00:00,97.0,19.6,29.89,South,180,6.6,21.6,6,0.00,,---,0.00,VWS V12.07,2013-06-18 22:00:00,
2013-06-18 15:04:00,97.0,19.6,29.89,South,177,7.4,24.7,6,0.00,,---,0.00,VWS V12.07,2013-06-18 22:04:00,
2013-06-18 15:09:00,97.2,19.7,29.88,SW,217,0.0,24.7,6,0.00,,---,0.00,VWS V12.07,2013-06-18 22:09:00,
2013-06-18 15:14:00,97.4,19.5,29.88,SW,233,4.6,24.7,6,0.00,,---,0.00,VWS V12.07,2013-06-18 22:14:00,
2013-06-18 15:19:00,97.5,19.6,29.88,South,176,6.1,24.7,6,0.00,,---,0.00,VWS V12.07,2013-06-18 22:19:00,
2013-06-18 15:24:00,97.4,19.5,29.88,SE,134,9.3,24.7,6,0.00,,---,0.00,VWS V12.07,2013-06-18 22:24:00,
2013-06-18 15:29:00,97.8,19.8,29.88,WSW,243,7.8,24.7,6,0.00,,---,0.00,VWS V12.07,2013-06-18 22:29:00,
2013-06-18 15:30:00,97.4,19.5,29.88,SW,224,5.3,21.3,6,0.00,,---,0.00,VWS V12.07,2013-06-18 22:30:00,
2013-06-18 15:34:00,97.8,19.8,29.87,SW,224,8.0,24.7,6,0.00,,---,0.00,VWS V12.07,2013-06-18 22:34:00,
2013-06-18 15:39:00,98.0,19.9,29.87,SSW,193,0.0,24.7,6,0.00,,---,0.00,VWS V12.07,2013-06-18 22:39:00,
2013-06-18 15:44:00,97.8,19.4,29.87,SW,215,0.0,24.7,6,0.00,,---,0.00,VWS V12.07,2013-06-18 22:44:00,
2013-06-18 15:49:00,97.2,19.4,29.87,SSW,204,3.2,24.7,6,0.00,,---,0.00,VWS V12.07,2013-06-18 22:49:00,
2013-06-18 15:54:00,97.1,19.3,29.87,SE,138,4.8,24.7,6,0.00,,---,0.00,VWS V12.07,2013-06-18 22:54:00,
2013-06-18 15:59:00,97.1,19.3,29.87,SW,233,4.3,24.7,6,0.00,,---,0.00,VWS V12.07,2013-06-18 22:59:00,
2013-06-18 16:00:00,97.1,19.3,29.87,SSE,160,3.5,20.1,6,0.00,,---,0.00,VWS V12.07,2013-06-18 23:00:00,
2013-06-18 16:04:00,97.1,19.3,29.87,SSW,210,7.2,24.7,6,0.00,,---,0.00,VWS V12.07,2013-06-18 23:04:00,
2013-06-18 16:09:00,97.3,19.4,29.86,SW,232,5.4,24.7,6,0.00,,---,0.00,VWS V12.07,2013-06-18 23:09:00,
2013-06-18 16:14:00,97.8,19.4,29.87,SSW,195,10.1,24.7,6,0.00,,---,0.00,VWS V12.07,2013-06-18 23:14:00,
2013-06-18 16:19:00,97.5,19.6,29.86,South,188,8.0,24.7,6,0.00,,---,0.00,VWS V12.07,2013-06-18 23:19:00,
2013-06-18 16:24:00,97.2,19.4,29.86,South,181,9.4,24.7,6,0.00,,---,0.00,VWS V12.07,2013-06-18 23:24:00,
2013-06-18 16:29:00,96.7,19.4,29.86,SW,229,0.0,24.7,6,0.00,,---,0.00,VWS V12.07,2013-06-18 23:29:00,
2013-06-18 16:30:00,97.0,19.2,29.86,SSW,195,3.4,16.4,6,0.00,,---,0.00,VWS V12.07,2013-06-18 23:30:00,
2013-06-18 16:34:00,96.7,19.4,29.85,SW,222,11.2,24.7,6,0.00,,---,0.00,VWS V12.07,2013-06-18 23:34:00,
2013-06-18 16:39:00,97.0,19.6,29.85,SSE,153,8.6,24.7,6,0.00,,---,0.00,VWS V12.07,2013-06-18 23:39:00,
2013-06-18 16:44:00,96.4,19.5,29.85,SSW,195,7.0,24.7,6,0.00,,---,0.00,VWS V12.07,2013-06-18 23:44:00,
2013-06-18 16:49:00,96.3,19.5,29.85,SW,232,6.3,24.7,6,0.00,,---,0.00,VWS V12.07,2013-06-18 23:49:00,
2013-06-18 16:54:00,96.3,19.5,29.85,SW,221,3.2,24.7,6,0.00,,---,0.00,VWS V12.07,2013-06-18 23:54:00,
2013-06-18 17:00:00,96.0,19.3,29.85,South,191,11.7,24.7,6,0.00,,---,0.00,VWS V12.07,2013-06-19 00:00:00,
2013-06-18 17:05:00,95.9,19.2,29.85,SW,214,4.3,24.7,6,0.00,,---,0.00,VWS V12.07,2013-06-19 00:05:00,
2013-06-18 17:10:00,95.9,19.2,29.85,South,186,7.5,24.7,6,0.00,,---,0.00,VWS V12.07,2013-06-19 00:10:00,
2013-06-18 17:15:00,95.4,19.2,29.85,WNW,284,0.0,24.7,6,0.00,,---,0.00,VWS V12.07,2013-06-19 00:15:00,
2013-06-18 17:20:00,95.8,19.5,29.85,SSW,205,5.0,24.7,6,0.00,,---,0.00,VWS V12.07,2013-06-19 00:20:00,
2013-06-18 17:25:00,95.3,19.1,29.84,South,180,12.7,24.7,6,0.00,,---,0.00,VWS V12.07,2013-06-19 00:25:00,
2013-06-18 17:30:00,94.8,19.1,29.84,South,191,12.8,24.7,6,0.00,,---,0.00,VWS V12.07,2013-06-19 00:30:00,
2013-06-18 17:35:00,94.7,19.1,29.85,South,179,7.7,24.7,6,0.00,,---,0.00,VWS V12.07,2013-06-19 00:35:00,
2013-06-18 17:40:00,94.3,19.1,29.84,SSW,210,0.0,24.7,6,0.00,,---,0.00,VWS V12.07,2013-06-19 00:40:00,
2013-06-18 17:45:00,94.4,19.2,29.84,South,180,0.0,24.7,6,0.00,,---,0.00,VWS V12.07,2013-06-19 00:45:00,
2013-06-18 17:50:00,94.5,19.3,29.84,SSE,163,8.5,24.7,6,0.00,,---,0.00,VWS V12.07,2013-06-19 00:50:00,
2013-06-18 17:55:00,94.3,19.1,29.84,SSW,210,5.2,24.7,6,0.00,,---,0.00,VWS V12.07,2013-06-19 00:55:00,
2013-06-18 18:00:00,94.1,18.6,29.84,SSE,155,7.1,24.7,6,0.00,,---,0.00,VWS V12.07,2013-06-19 01:00:00,
2013-06-18 18:05:00,93.5,18.2,29.84,South,184,6.0,24.7,6,0.00,,---,0.00,VWS V12.07,2013-06-19 01:05:00,
2013-06-18 18:10:00,93.4,18.5,29.84,South,186,2.5,24.7,6,0.00,,---,0.00,VWS V12.07,2013-06-19 01:10:00,
2013-06-18 18:15:00,93.4,18.5,29.85,South,190,4.3,24.7,6,0.00,,---,0.00,VWS V12.07,2013-06-19 01:15:00,
2013-06-18 18:20:00,93.2,18.4,29.85,SSW,201,3.4,24.7,6,0.00,,---,0.00,VWS V12.07,2013-06-19 01:20:00,
2013-06-18 18:25:00,93.1,18.3,29.85,South,191,10.0,24.7,6,0.00,,---,0.00,VWS V12.07,2013-06-19 01:25:00,
2013-06-18 18:30:00,92.9,18.1,29.85,SSW,197,4.3,24.7,6,0.00,,---,0.00,VWS V12.07,2013-06-19 01:30:00,
2013-06-18 18:35:00,92.4,17.8,29.85,SSW,204,9.5,24.7,6,0.00,,---,0.00,VWS V12.07,2013-06-19 01:35:00,
2013-06-18 18:40:00,92.0,17.8,29.85,SSW,208,2.6,24.7,7,0.00,,---,0.00,VWS V12.07,2013-06-19 01:40:00,
2013-06-18 18:45:00,91.6,17.5,29.85,South,181,10.4,24.7,7,0.00,,---,0.00,VWS V12.07,2013-06-19 01:45:00,
2013-06-18 18:50:00,91.2,16.9,29.85,SSE,156,0.0,24.7,6,0.00,,---,0.00,VWS V12.07,2013-06-19 01:50:00,
2013-06-18 18:55:00,90.9,16.7,29.85,WSW,242,0.0,24.7,6,0.00,,---,0.00,VWS V12.07,2013-06-19 01:55:00,
2013-06-18 19:00:00,90.3,16.3,29.85,SW,224,0.0,24.7,6,0.00,,---,0.00,VWS V12.07,2013-06-19 02:00:00,
2013-06-18 19:05:00,90.1,16.1,29.85,South,191,0.0,24.7,6,0.00,,---,0.00,VWS V12.07,2013-06-19 02:05:00,
2013-06-18 19:10:00,89.7,15.8,29.85,SSW,193,0.0,24.7,6,0.00,,---,0.00,VWS V12.07,2013-06-19 02:10:00,
2013-06-18 19:15:00,89.2,15.5,29.85,SSW,197,5.3,24.7,6,0.00,,---,0.00,VWS V12.07,2013-06-19 02:15:00,
2013-06-18 19:20:00,88.9,15.2,29.84,South,184,3.5,24.7,6,0.00,,---,0.00,VWS V12.07,2013-06-19 02:20:00,
2013-06-18 19:25:00,88.6,15.0,29.84,South,187,4.3,24.7,6,0.00,,---,0.00,VWS V12.07,2013-06-19 02:25:00,
2013-06-18 19:30:00,88.3,14.8,29.84,SW,224,0.0,24.7,6,0.00,,---,0.00,VWS V12.07,2013-06-19 02:30:00,
2013-06-18 19:35:00,88.0,14.2,29.84,South,170,3.2,24.7,6,0.00,,---,0.00,VWS V12.07,2013-06-19 02:35:00,
2013-06-18 19:40:00,87.8,14.5,29.84,South,183,3.4,24.7,6,0.00,,---,0.00,VWS V12.07,2013-06-19 02:40:00,
2013-06-18 19:45:00,87.3,13.7,29.84,South,184,4.2,24.7,6,0.00,,---,0.00,VWS V12.07,2013-06-19 02:45:00,
2013-06-18 19:50:00,87.1,13.6,29.84,SSW,211,0.0,24.7,6,0.00,,---,0.00,VWS V12.07,2013-06-19 02:50:00,
2013-06-18 19:55:00,86.8,13.4,29.84,South,181,0.0,24.7,6,0.00,,---,0.00,VWS V12.07,2013-06-19 02:55:00,
2013-06-18 20:00:00,86.4,13.1,29.84,SSW,195,0.0,24.7,6,0.00,,---,0.00,VWS V12.07,2013-06-19 03:00:00,
2013-06-18 20:05:00,86.0,12.8,29.84,SSW,195,0.0,24.7,6,0.00,,---,0.00,VWS V12.07,2013-06-19 03:05:00,
2013-06-18 20:10:00,85.3,12.6,29.84,SSW,195,0.0,24.7,6,0.00,,---,0.00,VWS V12.07,2013-06-19 03:10:00,
2013-06-18 20:15:00,84.8,12.6,29.84,South,181,0.0,24.7,7,0.00,,---,0.00,VWS V12.07,2013-06-19 03:15:00,
2013-06-18 20:20:00,84.0,12.1,29.84,South,176,0.0,24.7,7,0.00,,---,0.00,VWS V12.07,2013-06-19 03:20:00,
2013-06-18 20:25:00,83.5,12.0,29.84,South,176,0.0,24.7,7,0.00,,---,0.00,VWS V12.07,2013-06-19 03:25:00,
2013-06-18 20:30:00,83.1,11.7,29.84,South,176,0.0,24.7,7,0.00,,---,0.00,VWS V12.07,2013-06-19 03:30:00,
2013-06-18 20:35:00,82.8,11.9,29.84,South,176,0.0,24.7,7,0.00,,---,0.00,VWS V12.07,2013-06-19 03:35:00,
2013-06-18 20:40:00,82.5,11.6,29.84,South,176,0.0,24.7,7,0.00,,---,0.00,VWS V12.07,2013-06-19 03:40:00,
2013-06-18 20:45:00,82.4,11.9,29.84,South,176,0.0,24.7,7,0.00,,---,0.00,VWS V12.07,2013-06-19 03:45:00,
2013-06-18 20:50:00,82.3,11.8,29.84,South,176,0.0,24.7,7,0.00,,---,0.00,VWS V12.07,2013-06-19 03:50:00,
2013-06-18 20:55:00,82.0,11.6,29.84,South,170,0.0,24.7,7,0.00,,---,0.00,VWS V12.07,2013-06-19 03:55:00,
2013-06-18 21:00:00,82.1,12.0,29.84,South,170,0.0,24.7,7,0.00,,---,0.00,VWS V12.07,2013-06-19 04:00:00,
2013-06-18 21:01:00,82.1,11.7,29.84,South,170,0.0,24.7,7,0.00,,---,0.00,VWS V12.07,2013-06-19 04:01:00,
2013-06-18 21:06:00,82.3,11.8,29.84,South,172,0.0,24.7,7,0.00,,---,0.00,VWS V12.07,2013-06-19 04:06:00,
2013-06-18 21:11:00,82.3,11.5,29.84,South,172,0.0,24.7,7,0.00,,---,0.00,VWS V12.07,2013-06-19 04:11:00,
2013-06-18 21:16:00,82.5,12.0,29.85,South,172,0.0,24.7,7,0.00,,---,0.00,VWS V12.07,2013-06-19 04:16:00,
2013-06-18 21:21:00,82.4,11.9,29.85,South,172,0.0,24.7,7,0.00,,---,0.00,VWS V12.07,2013-06-19 04:21:00,
2013-06-18 21:26:00,81.9,11.9,29.85,South,172,0.0,24.7,7,0.00,,---,0.00,VWS V12.07,2013-06-19 04:26:00,
2013-06-18 21:30:00,81.7,11.7,29.85,South,172,0.0,5.5,7,0.00,,---,0.00,VWS V12.07,2013-06-19 04:30:00,
2013-06-18 21:31:00,81.5,11.2,29.85,South,172,0.0,24.7,7,0.00,,---,0.00,VWS V12.07,2013-06-19 04:31:00,
2013-06-18 21:36:00,81.5,11.2,29.85,South,172,0.0,24.7,7,0.00,,---,0.00,VWS V12.07,2013-06-19 04:36:00,
2013-06-18 21:41:00,81.1,11.6,29.85,South,172,0.0,24.7,7,0.00,,---,0.00,VWS V12.07,2013-06-19 04:41:00,
2013-06-18 21:46:00,80.5,11.8,29.85,South,172,0.0,24.7,7,0.00,,---,0.00,VWS V12.07,2013-06-19 04:46:00,
2013-06-18 21:51:00,80.2,12.8,29.85,South,172,0.0,24.7,8,0.00,,---,0.00,VWS V12.07,2013-06-19 04:51:00,
2013-06-18 21:56:00,79.7,13.2,29.84,South,172,0.0,24.7,8,0.00,,---,0.00,VWS V12.07,2013-06-19 04:56:00,
2013-06-18 22:00:00,79.5,13.1,29.85,South,172,0.0,0.0,8,0.00,,---,0.00,VWS V12.07,2013-06-19 05:00:00,
2013-06-18 22:01:00,78.7,14.1,29.85,West,262,0.0,24.7,9,0.00,,---,0.00,VWS V12.07,2013-06-19 05:01:00,
2013-06-18 22:06:00,77.8,14.8,29.85,West,262,0.0,24.7,9,0.00,,---,0.00,VWS V12.07,2013-06-19 05:06:00,
2013-06-18 22:11:00,77.4,14.2,29.85,West,262,0.0,24.7,9,0.00,,---,0.00,VWS V12.07,2013-06-19 05:11:00,
2013-06-18 22:16:00,77.0,15.4,29.84,West,262,0.0,24.7,10,0.00,,---,0.00,VWS V12.07,2013-06-19 05:16:00,
2013-06-18 22:21:00,76.7,15.6,29.84,West,262,0.0,24.7,10,0.00,,---,0.00,VWS V12.07,2013-06-19 05:21:00,
2013-06-18 22:26:00,76.4,15.9,29.84,West,262,0.0,24.7,10,0.00,,---,0.00,VWS V12.07,2013-06-19 05:26:00,
2013-06-18 22:30:00,76.2,16.1,29.84,West,262,0.0,7.1,10,0.00,,---,0.00,VWS V12.07,2013-06-19 05:30:00,
2013-06-18 22:31:00,75.8,16.7,29.84,West,262,0.0,24.7,11,0.00,,---,0.00,VWS V12.07,2013-06-19 05:31:00,
2013-06-18 22:36:00,75.3,16.1,29.84,West,262,0.0,24.7,10,0.00,,---,0.00,VWS V12.07,2013-06-19 05:36:00,
2013-06-18 22:41:00,75.1,15.8,29.84,West,262,0.0,24.7,10,0.00,,---,0.00,VWS V12.07,2013-06-19 05:41:00,
2013-06-18 22:46:00,75.1,15.5,29.83,West,262,0.0,24.7,10,0.00,,---,0.00,VWS V12.07,2013-06-19 05:46:00,
2013-06-18 22:51:00,75.4,15.3,29.84,West,262,0.0,24.7,10,0.00,,---,0.00,VWS V12.07,2013-06-19 05:51:00,
2013-06-18 22:56:00,75.8,14.9,29.83,West,262,0.0,24.7,10,0.00,,---,0.00,VWS V12.07,2013-06-19 05:56:00,
2013-06-18 23:00:00,75.7,14.9,29.83,West,262,0.0,0.0,10,0.00,,---,0.00,VWS V12.07,2013-06-19 06:00:00,
2013-06-18 23:01:00,76.2,14.8,29.83,West,262,0.0,24.7,10,0.00,,---,0.00,VWS V12.07,2013-06-19 06:01:00,
2013-06-18 23:06:00,76.6,14.6,29.83,West,262,0.0,24.7,9,0.00,,---,0.00,VWS V12.07,2013-06-19 06:06:00,
2013-06-18 23:11:00,77.5,13.8,29.83,West,262,0.0,24.7,9,0.00,,---,0.00,VWS V12.07,2013-06-19 06:11:00,
2013-06-18 23:16:00,78.2,14.0,29.83,West,262,0.0,24.7,9,0.00,,---,0.00,VWS V12.07,2013-06-19 06:16:00,
2013-06-18 23:21:00,78.2,14.3,29.83,West,262,0.0,24.7,9,0.00,,---,0.00,VWS V12.07,2013-06-19 06:21:00,
2013-06-18 23:26:00,77.4,14.7,29.83,West,262,0.0,24.7,9,0.00,,---,0.00,VWS V12.07,2013-06-19 06:26:00,
2013-06-18 23:30:00,77.4,14.7,29.83,West,262,0.0,0.0,9,0.00,,---,0.00,VWS V12.07,2013-06-19 06:30:00,
2013-06-18 23:31:00,77.0,15.4,29.83,West,262,0.0,24.7,10,0.00,,---,0.00,VWS V12.07,2013-06-19 06:31:00,
2013-06-18 23:36:00,76.0,16.0,29.83,West,262,0.0,24.7,10,0.00,,---,0.00,VWS V12.07,2013-06-19 06:36:00,
2013-06-18 23:41:00,75.1,16.6,29.83,West,262,0.0,24.7,11,0.00,,---,0.00,VWS V12.07,2013-06-19 06:41:00,
2013-06-18 23:46:00,74.7,17.4,29.83,West,262,0.0,24.7,11,0.00,,---,0.00,VWS V12.07,2013-06-19 06:46:00,
2013-06-18 23:51:00,73.7,18.0,29.83,West,262,0.0,24.7,12,0.00,,---,0.00,VWS V12.07,2013-06-19 06:51:00,
2013-06-18 23:56:00,73.0,18.4,29.83,West,262,0.0,24.7,12,0.00,,---,0.00,VWS V12.07,2013-06-19 06:56:00,